C/2022 U2 ( ATLAS )

Japanese version
Home page
Updated on March 4, 2023

---------------------------------------------------------------------

* Profile

Discovery Date October 25, 2022
Magnitude 19.1 mag
Discoverer Asteroid Terrestrial-Impact Last Alert System (ATLAS) search program

* Pictures

* Orbital Elements

Epoch 2023 Feb. 25.0 TT = JDT 2460000.5
T 2023 Jan. 14.22168 TT                                 Rudenko
q   1.3280248            (2000.0)            P               Q
z  +0.0104414      Peri.  147.91001     -0.18795393     -0.76578612
 +/-0.0000065      Node   304.47605     +0.66684873     +0.36023319
e   0.9861335      Incl.   48.24939     +0.72110061     -0.53273226
>From 832 observations 2022 Oct. 25-2023 Feb. 26, mean residual 0".5.

* Finding Charts

* Magnitudes Graph

        m1 = 8.5 + 5 log d + 25.0 log r

---------------------------------------------------------------------

The orbital elements are published on M.P.E.C. 2023-D72.
The charts are made with StellaNavigator Ver.10 (AstroArts).
The magnitudes graphs are made with Comet for Windows.

---------------------------------------------------------------------

Copyright(C) Seiichi Yoshida (comet@aerith.net). All rights reserved.